Flag for U.S.A. Weather past 2 weeks in Fall River, Massachusetts, U.S.A.

Now
47 °F

Clear.


Feels Like: 47 °F
Forecast: 47 / 64 °F
Wind: No wind

Location: New Bedford Regional Airport

Current Time: Oct 21, 2014 at 8:52:15 AM

Latest Report: Oct 21, 2014 at 7:53 AM


Visibility: 10 mi

Pressure: 29.94 "Hg

Humidity: 97%

Dew point: 46 °F

Location of Fall RiverLocation

Historic Weather in Fall River — Graph

°F

Fall River temperature yesterday

Maximum temperature yesterday: 55 °F (at 3:53 PM)
Minimum temperature yesterday: 32 °F (at 6:53 AM)
Average temperature yesterday: 44 °F

Past Weeks' High & Low Weather Summary

 TemperatureHumidityPressure
High77 °F (Oct 15, 11:53 AM)100% (Oct 13, 5:53 AM)30.36 "Hg (Oct 13, 5:53 AM)
Low32 °F (Oct 20, 6:53 AM)34% (Oct 9, 1:53 PM)29.50 "Hg (Oct 18, 3:53 PM)
Average58 °F78%29.99 "Hg
* Reported Oct 6 6:53 AM — Oct 21 6:53 AM, Fall River, Weather by CustomWeather, © 2014

Note: Actual official high and low records may vary slightly from our data, if they occured in-between our weather recording intervals... More about our weather records

Advertising

Fall River weather history for previous 24 hours

 ConditionsComfort  
Time TempWeatherWind HumidityBarometerVisibility
6:53 AM
Oct 21
46 °FPassing clouds.No wind93%29.94 "Hg10 mi
5:53 AM45 °FOvercast.No wind97%29.95 "Hg10 mi
4:53 AM45 °FPassing clouds.No wind93%29.97 "Hg10 mi
3:53 AM44 °FClear.No wind93%29.97 "Hg10 mi
2:53 AM46 °FPartly cloudy.No wind93%29.98 "Hg10 mi
1:53 AM46 °FPassing clouds.3 mph89%29.99 "Hg10 mi
12:53 AM44 °FPartly cloudy.No wind93%30.00 "Hg10 mi
11:53 PM
Oct 20
42 °FPassing clouds.No wind92%30.00 "Hg10 mi
10:53 PM41 °FPassing clouds.No wind96%30.01 "Hg10 mi
9:53 PM43 °FClear.No wind93%30.02 "Hg10 mi
8:53 PM43 °FClear.No wind89%30.02 "Hg10 mi
7:53 PM46 °FClear.No wind79%30.01 "Hg9 mi
6:53 PM50 °FSunny.3 mph66%30.01 "Hg10 mi
5:53 PM52 °FSunny.8 mph61%29.98 "Hg10 mi
4:53 PM54 °FSunny.9 mph59%29.98 "Hg10 mi
3:53 PM55 °FSunny.13 mph55%29.99 "Hg10 mi
2:53 PM54 °FSunny.12 mph51%30.00 "Hg10 mi
1:53 PM54 °FSunny.10 mph45%30.00 "Hg10 mi
12:53 PM53 °FSunny.9 mph45%30.02 "Hg10 mi
11:53 AM51 °FSunny.10 mph48%30.06 "Hg10 mi
10:53 AM49 °FSunny.10 mph52%30.07 "Hg10 mi
9:53 AM46 °FSunny.12 mph54%30.08 "Hg10 mi
8:53 AM43 °FSunny.6 mph62%30.08 "Hg10 mi
Weather by CustomWeather, © 2014

See weather overviewHow to use our weather pages